Location: Oberwangen
(47.4286°N, 8.9679°E)
Time: 23:30:26
(UTC+00:00)

Cosmos 2278 Rocket - Pass Details

Date: 20 June 2021
Orbit: 840 x 846 km, 71.0° (Epoch: 23 July)

Event Time Altitude Azimuth Distance (km) Brightness Sun altitude
Rises 22:52:46 0° 324° (NW) 3,412 6.4 -18.7°
Reaches altitude 10° 22:55:32 10° 313° (NW) 2,473 5.3 -18.8°
Maximum altitude 23:00:13 27° 257° (WSW) 1,562 3.5 -18.9°
Enters shadow 23:02:28 21° 221° (SW) 1,811 3.5 -18.9°
